Tracking 29799 objects as of 11-Oct-2024
HD Live streaming from Space Station
objects crossing your sky now

NOAA 17 DEB

Track NOAA 17 DEB now!
10-day predictions


NORAD ID: 48702
Int'l Code: 2002-032AL
Perigee: 742.9 km
Apogee: 751.2 km
Inclination: 98.7 °
Period: 99.6 minutes
Semi major axis: 7118 km
RCS: Unknown
Launch date: June 24, 2002
Source: United States (US)
Launch site: AIR FORCE WESTERN TEST RANGE (AFWTR)

Note: This is SATELLITE DEBRIS
Your satellite tracking list
Your tracking list is empty




NASA's NSSDC Master Catalog

Two Line Element Set (TLE):
1 48702U 02032AK  24284.84109547  .00200286  00000-0  54923-1 0  9998
2 48702  98.6504 236.3019 0005896 294.3627  65.6948 14.45644187187008
Source of the keplerian elements: AFSPC